Time,TemperatureF,DewpointF,PressureIn,WindDirection,WindDirectionDegrees,WindSpeedMPH,WindSpeedGustMPH,Humidity,HourlyPrecipIn,Conditions,Clouds,dailyrainin,SoftwareType,DateUTC
2013-07-19 00:00:00,77.1,72.6,29.92,SE,126,0.0,0.0,86,0.00,SCT,,0.00,WeatherDisplay:10.37,2013-07-19 04:00:00,
2013-07-19 00:01:00,77.1,72.6,29.92,SE,132,0.1,1.0,86,0.00,SCT,,0.00,WeatherDisplay:10.37,2013-07-19 04:01:00,
2013-07-19 00:06:00,77.2,72.3,29.92,SE,144,1.4,3.5,85,0.00,SCT,,0.00,WeatherDisplay:10.37,2013-07-19 04:06:00,
2013-07-19 00:11:00,77.3,72.4,29.92,SSE,156,1.6,3.5,85,0.00,SCT,,0.00,WeatherDisplay:10.37,2013-07-19 04:11:00,
2013-07-19 00:16:00,77.3,72.4,29.92,SSE,157,0.0,0.0,85,0.00,SCT,,0.00,WeatherDisplay:10.37,2013-07-19 04:16:00,
2013-07-19 00:21:00,77.3,72.4,29.92,South,179,0.2,2.3,85,0.00,SCT,,0.00,WeatherDisplay:10.37,2013-07-19 04:21:00,
2013-07-19 00:26:00,77.4,72.5,29.92,South,179,1.2,3.5,85,0.00,SCT,,0.00,WeatherDisplay:10.37,2013-07-19 04:26:00,
2013-07-19 00:32:00,77.4,72.5,29.92,South,179,0.0,0.0,85,0.00,SCT,,0.00,WeatherDisplay:10.37,2013-07-19 04:32:00,
2013-07-19 00:37:00,77.5,72.6,29.92,South,178,0.1,0.0,85,0.00,SCT,,0.00,WeatherDisplay:10.37,2013-07-19 04:37:00,
2013-07-19 00:42:00,77.5,72.3,29.92,South,178,0.2,2.0,84,0.00,SCT,,0.00,WeatherDisplay:10.37,2013-07-19 04:42:00,
2013-07-19 00:47:00,77.4,72.2,29.92,South,178,0.7,2.3,84,0.00,SCT,,0.00,WeatherDisplay:10.37,2013-07-19 04:47:00,
2013-07-19 00:52:00,77.5,72.3,29.92,South,179,0.7,2.3,84,0.00,SCT,,0.00,WeatherDisplay:10.37,2013-07-19 04:52:00,
2013-07-19 00:57:00,77.4,72.2,29.91,SSE,168,1.3,3.5,84,0.00,SCT,,0.00,WeatherDisplay:10.37,2013-07-19 04:57:00,
2013-07-19 01:02:00,77.4,72.5,29.91,SSE,167,0.0,1.2,85,0.00,BKN,,0.00,WeatherDisplay:10.37,2013-07-19 05:02:00,
2013-07-19 01:07:00,77.4,72.5,29.92,SSE,167,0.0,0.0,85,0.00,BKN,,0.00,WeatherDisplay:10.37,2013-07-19 05:07:00,
2013-07-19 01:12:00,77.3,72.4,29.92,SSE,167,0.0,0.0,85,0.00,BKN,,0.00,WeatherDisplay:10.37,2013-07-19 05:12:00,
2013-07-19 01:17:00,77.1,72.2,29.92,SSE,164,0.0,3.5,85,0.00,BKN,,0.00,WeatherDisplay:10.37,2013-07-19 05:17:00,
2013-07-19 01:22:00,77.0,72.5,29.92,SE,141,1.0,3.5,86,0.00,BKN,,0.00,WeatherDisplay:10.37,2013-07-19 05:22:00,
2013-07-19 01:28:00,76.9,72.4,29.92,SSE,163,2.2,3.5,86,0.00,BKN,,0.00,WeatherDisplay:10.37,2013-07-19 05:28:00,
2013-07-19 01:33:00,76.9,72.4,29.92,South,191,1.1,3.5,86,0.00,BKN,,0.00,WeatherDisplay:10.37,2013-07-19 05:33:00,
2013-07-19 01:38:00,77.0,72.5,29.92,SE,144,1.9,3.5,86,0.00,BKN,,0.00,WeatherDisplay:10.37,2013-07-19 05:38:00,
2013-07-19 01:43:00,76.9,72.4,29.92,SE,136,2.2,5.8,86,0.00,BKN,,0.00,WeatherDisplay:10.37,2013-07-19 05:43:00,
2013-07-19 01:48:00,76.8,72.6,29.92,SSE,166,1.4,3.5,87,0.00,BKN,,0.00,WeatherDisplay:10.37,2013-07-19 05:48:00,
2013-07-19 01:53:00,76.8,72.6,29.92,SSE,160,1.8,3.5,87,0.00,BKN,,0.00,WeatherDisplay:10.37,2013-07-19 05:53:00,
2013-07-19 01:58:00,76.7,72.5,29.92,SSE,153,2.4,5.8,87,0.00,BKN,,0.00,WeatherDisplay:10.37,2013-07-19 05:58:00,
2013-07-19 02:03:00,76.6,72.4,29.92,SE,141,1.3,3.5,87,0.00,BKN,,0.00,WeatherDisplay:10.37,2013-07-19 06:03:00,
2013-07-19 02:08:00,76.5,72.7,29.91,South,169,0.6,1.2,88,0.00,BKN,,0.00,WeatherDisplay:10.37,2013-07-19 06:08:00,
2013-07-19 02:13:00,76.4,72.6,29.92,SSE,149,1.3,4.6,88,0.00,BKN,,0.00,WeatherDisplay:10.37,2013-07-19 06:13:00,
2013-07-19 02:18:00,76.4,72.6,29.92,SE,134,1.9,4.6,88,0.00,BKN,,0.00,WeatherDisplay:10.37,2013-07-19 06:18:00,
2013-07-19 02:23:00,76.3,72.5,29.92,South,175,0.7,3.5,88,0.00,BKN,,0.00,WeatherDisplay:10.37,2013-07-19 06:23:00,
2013-07-19 02:28:00,76.3,72.5,29.92,South,182,0.9,3.5,88,0.00,BKN,,0.00,WeatherDisplay:10.37,2013-07-19 06:28:00,
2013-07-19 02:34:00,76.2,72.4,29.92,South,182,0.5,2.0,88,0.00,BKN,,0.00,WeatherDisplay:10.37,2013-07-19 06:34:00,
2013-07-19 02:39:00,76.0,72.5,29.92,SE,130,0.8,3.5,89,0.00,BKN,,0.00,WeatherDisplay:10.37,2013-07-19 06:39:00,
2013-07-19 02:44:00,75.8,72.3,29.91,SSE,148,1.4,3.5,89,0.00,BKN,,0.00,WeatherDisplay:10.37,2013-07-19 06:44:00,
2013-07-19 02:49:00,75.6,72.1,29.91,SE,145,0.7,3.5,89,0.00,BKN,,0.00,WeatherDisplay:10.37,2013-07-19 06:49:00,
2013-07-19 02:54:00,75.4,72.3,29.92,SE,136,0.7,2.3,90,0.00,BKN,,0.00,WeatherDisplay:10.37,2013-07-19 06:54:00,
2013-07-19 02:59:00,75.2,72.1,29.91,ESE,121,0.1,1.2,90,0.00,BKN,,0.00,WeatherDisplay:10.37,2013-07-19 06:59:00,
2013-07-19 03:04:00,75.1,72.0,29.91,ESE,116,1.0,3.5,90,0.00,BKN,,0.00,WeatherDisplay:10.37,2013-07-19 07:04:00,
2013-07-19 03:09:00,74.9,72.1,29.91,SE,135,1.2,2.3,91,0.00,BKN,,0.00,WeatherDisplay:10.37,2013-07-19 07:09:00,
2013-07-19 03:14:00,74.8,72.0,29.91,SE,134,1.2,3.5,91,0.00,BKN,,0.00,WeatherDisplay:10.37,2013-07-19 07:14:00,
2013-07-19 03:19:00,74.7,71.9,29.91,SE,131,0.0,1.2,91,0.00,BKN,,0.00,WeatherDisplay:10.37,2013-07-19 07:19:00,
2013-07-19 03:24:00,74.6,71.8,29.90,ESE,107,0.8,0.0,91,0.00,BKN,,0.00,WeatherDisplay:10.37,2013-07-19 07:24:00,
2013-07-19 03:30:00,74.6,71.8,29.90,ESE,107,0.0,0.0,91,0.00,BKN,,0.00,WeatherDisplay:10.37,2013-07-19 07:30:00,
2013-07-19 03:35:00,74.5,71.7,29.89,SE,129,0.4,2.3,91,0.00,BKN,,0.00,WeatherDisplay:10.37,2013-07-19 07:35:00,
2013-07-19 03:40:00,74.4,71.9,29.89,SE,140,0.0,0.0,92,0.00,BKN,,0.00,WeatherDisplay:10.37,2013-07-19 07:40:00,
2013-07-19 03:45:00,74.5,72.0,29.89,South,188,0.7,3.5,92,0.00,BKN,,0.00,WeatherDisplay:10.37,2013-07-19 07:45:00,
2013-07-19 03:50:00,74.6,72.1,29.89,South,178,1.6,4.6,92,0.00,BKN,,0.00,WeatherDisplay:10.37,2013-07-19 07:50:00,
2013-07-19 03:55:00,74.6,72.1,29.89,SE,144,4.2,9.2,92,0.00,BKN,,0.00,WeatherDisplay:10.37,2013-07-19 07:55:00,
2013-07-19 04:00:00,74.7,72.2,29.89,South,173,0.0,2.3,92,0.00,BKN,,0.00,WeatherDisplay:10.37,2013-07-19 08:00:00,
2013-07-19 04:05:00,74.8,72.0,29.89,South,182,2.0,3.5,91,0.00,BKN,,0.00,WeatherDisplay:10.37,2013-07-19 08:05:00,
2013-07-19 04:10:00,74.8,72.0,29.89,South,179,0.0,1.2,91,0.00,BKN,,0.00,WeatherDisplay:10.37,2013-07-19 08:10:00,
2013-07-19 04:15:00,74.8,72.0,29.89,ESE,116,0.4,2.3,91,0.00,SCT,,0.00,WeatherDisplay:10.37,2013-07-19 08:15:00,
2013-07-19 04:20:00,74.8,72.0,29.89,SE,142,0.9,3.5,91,0.00,SCT,,0.00,WeatherDisplay:10.37,2013-07-19 08:20:00,
2013-07-19 04:25:00,74.8,72.0,29.89,SE,125,1.6,3.5,91,0.00,SCT,,0.00,WeatherDisplay:10.37,2013-07-19 08:25:00,
2013-07-19 04:30:00,74.7,72.2,29.89,SSE,153,0.8,3.5,92,0.00,SCT,,0.00,WeatherDisplay:10.37,2013-07-19 08:30:00,
2013-07-19 04:35:00,74.7,72.2,29.89,SSE,152,0.3,3.5,92,0.00,SCT,,0.00,WeatherDisplay:10.37,2013-07-19 08:35:00,
2013-07-19 04:41:00,74.6,72.1,29.89,SSE,159,0.6,5.0,92,0.00,SCT,,0.00,WeatherDisplay:10.37,2013-07-19 08:41:00,
2013-07-19 04:46:00,74.6,72.1,29.89,SE,129,2.4,4.0,92,0.00,SCT,,0.00,WeatherDisplay:10.37,2013-07-19 08:46:00,
2013-07-19 04:51:00,74.5,72.3,29.89,South,177,1.0,3.5,93,0.00,SCT,,0.00,WeatherDisplay:10.37,2013-07-19 08:51:00,
2013-07-19 04:56:00,74.4,72.2,29.88,SSE,157,0.0,1.2,93,0.00,SCT,,0.00,WeatherDisplay:10.37,2013-07-19 08:56:00,
2013-07-19 05:01:00,74.4,72.2,29.88,South,180,1.5,5.8,93,0.00,SCT,,0.00,WeatherDisplay:10.37,2013-07-19 09:01:00,
2013-07-19 05:06:00,74.3,72.1,29.88,SE,126,1.2,4.6,93,0.00,SCT,,0.00,WeatherDisplay:10.37,2013-07-19 09:06:00,
2013-07-19 05:11:00,74.2,72.4,29.88,SSE,157,1.7,4.6,94,0.00,SCT,,0.00,WeatherDisplay:10.37,2013-07-19 09:11:00,
2013-07-19 05:16:00,74.2,72.4,29.88,East,88,3.3,5.8,94,0.00,SCT,,0.00,WeatherDisplay:10.37,2013-07-19 09:16:00,
2013-07-19 05:21:00,74.1,72.3,29.88,SSE,147,0.7,5.8,94,0.00,SCT,,0.00,WeatherDisplay:10.37,2013-07-19 09:21:00,
2013-07-19 05:26:00,74.1,72.3,29.88,South,171,1.5,5.8,94,0.00,SCT,,0.00,WeatherDisplay:10.37,2013-07-19 09:26:00,
2013-07-19 05:31:00,74.0,72.2,29.88,South,191,0.7,3.5,94,0.00,SCT,,0.00,WeatherDisplay:10.37,2013-07-19 09:31:00,
2013-07-19 05:36:00,73.9,72.1,29.89,SSE,149,0.1,6.9,94,0.00,SCT,,0.00,WeatherDisplay:10.37,2013-07-19 09:36:00,
2013-07-19 05:41:00,73.9,72.1,29.89,SSE,150,3.0,3.5,94,0.00,SCT,,0.00,WeatherDisplay:10.37,2013-07-19 09:41:00,
2013-07-19 05:46:00,73.8,72.0,29.88,South,189,1.1,4.6,94,0.00,SCT,,0.00,WeatherDisplay:10.37,2013-07-19 09:46:00,
2013-07-19 05:51:00,73.8,72.0,29.88,ESE,121,2.5,3.5,94,0.00,SCT,,0.00,WeatherDisplay:10.37,2013-07-19 09:51:00,
2013-07-19 05:57:00,73.8,72.3,29.89,SE,138,1.4,3.5,95,0.00,SCT,,0.00,WeatherDisplay:10.37,2013-07-19 09:57:00,
2013-07-19 06:02:00,73.8,72.3,29.89,SSE,160,2.4,5.0,95,0.00,BKN,,0.00,WeatherDisplay:10.37,2013-07-19 10:02:00,
2013-07-19 06:07:00,73.8,72.3,29.89,SE,138,3.2,6.9,95,0.00,BKN,,0.00,WeatherDisplay:10.37,2013-07-19 10:07:00,
2013-07-19 06:12:00,73.8,72.3,29.88,SSE,153,2.4,5.8,95,0.00,BKN,,0.00,WeatherDisplay:10.37,2013-07-19 10:12:00,
2013-07-19 06:17:00,73.8,72.3,29.88,South,178,3.1,6.9,95,0.00,BKN,,0.00,WeatherDisplay:10.37,2013-07-19 10:17:00,
2013-07-19 06:22:00,73.8,72.3,29.89,SW,216,2.3,5.8,95,0.00,BKN,,0.00,WeatherDisplay:10.37,2013-07-19 10:22:00,
2013-07-19 06:27:00,73.8,72.3,29.88,SSE,158,1.3,6.0,95,0.00,BKN,,0.00,WeatherDisplay:10.37,2013-07-19 10:27:00,
2013-07-19 06:32:00,73.9,72.4,29.88,South,170,1.4,4.6,95,0.00,BKN,,0.00,WeatherDisplay:10.37,2013-07-19 10:32:00,
2013-07-19 06:38:00,74.0,72.5,29.88,ESE,111,1.1,3.5,95,0.00,BKN,,0.00,WeatherDisplay:10.37,2013-07-19 10:38:00,
2013-07-19 06:43:00,74.0,72.5,29.87,ESE,122,0.2,4.6,95,0.00,BKN,,0.00,WeatherDisplay:10.37,2013-07-19 10:43:00,
2013-07-19 06:48:00,74.1,72.6,29.87,SE,133,1.6,9.2,95,0.00,BKN,,0.00,WeatherDisplay:10.37,2013-07-19 10:48:00,
2013-07-19 06:53:00,74.2,72.7,29.88,South,186,2.4,9.2,95,0.00,BKN,,0.00,WeatherDisplay:10.37,2013-07-19 10:53:00,
2013-07-19 06:58:00,74.3,72.8,29.88,SSE,163,0.8,3.5,95,0.00,BKN,,0.00,WeatherDisplay:10.37,2013-07-19 10:58:00,
2013-07-19 07:03:00,74.4,72.6,29.88,South,190,0.2,2.3,94,0.00,BKN,,0.00,WeatherDisplay:10.37,2013-07-19 11:03:00,
2013-07-19 07:08:00,74.6,72.8,29.89,WSW,258,2.2,6.9,94,0.00,BKN,,0.00,WeatherDisplay:10.37,2013-07-19 11:08:00,
2013-07-19 07:13:00,74.8,73.0,29.88,SSE,166,3.5,5.8,94,0.00,BKN,,0.00,WeatherDisplay:10.37,2013-07-19 11:13:00,
2013-07-19 07:18:00,74.9,73.1,29.88,South,189,2.0,9.2,94,0.00,BKN,,0.00,WeatherDisplay:10.37,2013-07-19 11:18:00,
2013-07-19 07:23:00,75.0,73.2,29.88,SSW,198,1.4,7.0,94,0.00,BKN,,0.00,WeatherDisplay:10.37,2013-07-19 11:23:00,
2013-07-19 07:28:00,75.2,73.0,29.88,SSE,162,1.1,5.8,93,0.00,BKN,,0.00,WeatherDisplay:10.37,2013-07-19 11:28:00,
2013-07-19 07:33:00,75.4,73.2,29.88,South,176,1.8,5.8,93,0.00,BKN,,0.00,WeatherDisplay:10.37,2013-07-19 11:33:00,
2013-07-19 07:38:00,75.7,73.5,29.88,SSE,159,0.0,2.3,93,0.00,BKN,,0.00,WeatherDisplay:10.37,2013-07-19 11:38:00,
2013-07-19 07:43:00,76.1,73.9,29.88,SE,126,1.9,5.8,93,0.00,BKN,,0.00,WeatherDisplay:10.37,2013-07-19 11:43:00,
2013-07-19 07:48:00,76.6,74.4,29.88,WSW,242,0.0,2.3,93,0.00,BKN,,0.00,WeatherDisplay:10.37,2013-07-19 11:48:00,
2013-07-19 07:53:00,77.1,74.3,29.89,ESE,107,3.3,5.8,91,0.00,BKN,,0.00,WeatherDisplay:10.37,2013-07-19 11:53:00,
2013-07-19 07:59:00,77.5,74.3,29.89,SSW,213,0.7,5.8,90,0.00,BKN,,0.00,WeatherDisplay:10.37,2013-07-19 11:59:00,
2013-07-19 08:04:00,78.0,74.5,29.89,SSE,154,3.0,3.5,89,0.00,BKN,,0.00,WeatherDisplay:10.37,2013-07-19 12:04:00,
2013-07-19 08:09:00,78.7,75.2,29.89,ESE,107,0.4,4.6,89,0.00,BKN,,0.00,WeatherDisplay:10.37,2013-07-19 12:09:00,
2013-07-19 08:14:00,79.2,75.7,29.89,East,94,1.1,3.0,89,0.00,BKN,,0.00,WeatherDisplay:10.37,2013-07-19 12:14:00,
2013-07-19 08:19:00,79.6,75.4,29.88,SSW,201,0.5,3.5,87,0.00,BKN,,0.00,WeatherDisplay:10.37,2013-07-19 12:19:00,
2013-07-19 08:24:00,80.3,76.4,29.89,SSE,165,1.4,3.5,88,0.00,BKN,,0.00,WeatherDisplay:10.37,2013-07-19 12:24:00,
2013-07-19 08:29:00,80.7,76.1,29.88,SSE,166,1.1,3.5,86,0.00,BKN,,0.00,WeatherDisplay:10.37,2013-07-19 12:29:00,
2013-07-19 08:34:00,81.2,76.3,29.88,ESE,107,0.1,5.8,85,0.00,BKN,,0.00,WeatherDisplay:10.37,2013-07-19 12:34:00,
2013-07-19 08:39:00,81.6,76.6,29.88,ESE,112,1.6,3.5,85,0.00,BKN,,0.00,WeatherDisplay:10.37,2013-07-19 12:39:00,
2013-07-19 08:44:00,82.0,76.3,29.88,SSE,161,3.2,5.8,83,0.00,BKN,,0.00,WeatherDisplay:10.37,2013-07-19 12:44:00,
2013-07-19 08:50:00,82.3,76.6,29.88,West,265,1.3,5.0,83,0.00,BKN,,0.00,WeatherDisplay:10.37,2013-07-19 12:50:00,
2013-07-19 08:55:00,82.6,76.9,29.88,SSW,209,1.3,4.6,83,0.00,BKN,,0.00,WeatherDisplay:10.37,2013-07-19 12:55:00,
2013-07-19 09:00:00,82.9,76.1,29.88,SSW,213,4.2,6.9,80,0.00,BKN,,0.00,WeatherDisplay:10.37,2013-07-19 13:00:00,
2013-07-19 09:05:00,82.9,75.7,29.88,SSW,202,4.2,6.9,79,0.00,BKN,,0.00,WeatherDisplay:10.37,2013-07-19 13:05:00,
2013-07-19 09:10:00,82.9,76.5,29.88,South,182,2.8,4.6,81,0.00,BKN,,0.00,WeatherDisplay:10.37,2013-07-19 13:10:00,
2013-07-19 09:15:00,83.1,76.7,29.88,South,180,0.1,1.2,81,0.00,BKN,,0.00,WeatherDisplay:10.37,2013-07-19 13:15:00,
2013-07-19 09:20:00,83.4,76.2,29.88,SSE,165,0.8,5.8,79,0.00,BKN,,0.00,WeatherDisplay:10.37,2013-07-19 13:20:00,
2013-07-19 09:25:00,83.5,76.7,29.88,SW,236,4.7,6.9,80,0.00,BKN,,0.00,WeatherDisplay:10.37,2013-07-19 13:25:00,
2013-07-19 09:26:00,83.5,77.1,29.88,SW,221,4.3,6.9,81,0.00,BKN,,0.00,WeatherDisplay:10.37,2013-07-19 13:26:00,
2013-07-19 09:31:00,83.7,76.9,29.87,SSW,206,2.9,6.9,80,0.00,BKN,,0.00,WeatherDisplay:10.37,2013-07-19 13:31:00,
2013-07-19 09:36:00,83.9,76.7,29.87,SSW,203,3.8,8.1,79,0.00,BKN,,0.00,WeatherDisplay:10.37,2013-07-19 13:36:00,
2013-07-19 09:41:00,84.0,76.4,29.87,SW,215,1.7,4.6,78,0.00,BKN,,0.00,WeatherDisplay:10.37,2013-07-19 13:41:00,
2013-07-19 09:46:00,84.1,76.9,29.87,SW,216,2.6,9.0,79,0.00,BKN,,0.00,WeatherDisplay:10.37,2013-07-19 13:46:00,
2013-07-19 09:51:00,84.3,76.7,29.87,South,183,1.8,5.8,78,0.00,BKN,,0.00,WeatherDisplay:10.37,2013-07-19 13:51:00,
2013-07-19 09:56:00,84.4,76.8,29.87,SSW,194,4.0,6.9,78,0.00,BKN,,0.00,WeatherDisplay:10.37,2013-07-19 13:56:00,
2013-07-19 10:01:00,84.6,77.7,29.86,SSW,212,5.2,11.5,80,0.00,BKN,,0.00,WeatherDisplay:10.37,2013-07-19 14:01:00,
2013-07-19 10:06:00,84.8,77.9,29.86,SSW,206,5.3,9.2,80,0.00,BKN,,0.00,WeatherDisplay:10.37,2013-07-19 14:06:00,
2013-07-19 10:11:00,85.1,78.6,29.86,SW,215,1.6,4.6,81,0.00,BKN,,0.00,WeatherDisplay:10.37,2013-07-19 14:11:00,
2013-07-19 10:17:00,85.5,78.6,29.86,South,190,3.4,6.9,80,0.00,BKN,,0.00,WeatherDisplay:10.37,2013-07-19 14:17:00,
2013-07-19 10:22:00,85.6,78.7,29.86,South,173,3.7,5.8,80,0.00,BKN,,0.00,WeatherDisplay:10.37,2013-07-19 14:22:00,
2013-07-19 10:27:00,85.8,78.5,29.86,SW,218,2.9,9.0,79,0.00,BKN,,0.00,WeatherDisplay:10.37,2013-07-19 14:27:00,
2013-07-19 10:32:00,86.0,78.7,29.86,South,180,3.6,5.8,79,0.00,BKN,,0.00,WeatherDisplay:10.37,2013-07-19 14:32:00,
2013-07-19 10:37:00,86.3,78.6,29.85,SSW,193,4.0,7.0,78,0.00,BKN,,0.00,WeatherDisplay:10.37,2013-07-19 14:37:00,
2013-07-19 10:42:00,86.5,78.0,29.85,SW,227,5.3,10.4,76,0.00,BKN,,0.00,WeatherDisplay:10.37,2013-07-19 14:42:00,
2013-07-19 10:47:00,86.7,79.4,29.85,SW,214,5.1,5.8,79,0.00,BKN,,0.00,WeatherDisplay:10.37,2013-07-19 14:47:00,
2013-07-19 10:53:00,87.0,77.3,29.85,SW,226,6.4,10.4,73,0.00,BKN,,0.00,WeatherDisplay:10.37,2013-07-19 14:53:00,
2013-07-19 10:58:00,87.2,79.5,29.85,WSW,244,4.0,10.4,78,0.00,BKN,,0.00,WeatherDisplay:10.37,2013-07-19 14:58:00,
2013-07-19 11:03:00,87.4,79.7,29.85,SSW,202,4.6,10.4,78,0.00,BKN,,0.00,WeatherDisplay:10.37,2013-07-19 15:03:00,
2013-07-19 11:08:00,87.7,80.8,29.85,West,267,5.0,9.2,80,0.00,BKN,,0.00,WeatherDisplay:10.37,2013-07-19 15:08:00,
2013-07-19 11:13:00,87.8,80.5,29.85,WNW,286,0.0,3.5,79,0.00,BKN,,0.00,WeatherDisplay:10.37,2013-07-19 15:13:00,
2013-07-19 11:18:00,88.0,79.9,29.84,South,177,4.8,10.4,77,0.00,BKN,,0.00,WeatherDisplay:10.37,2013-07-19 15:18:00,
2013-07-19 11:24:00,87.9,79.4,29.84,SW,232,5.2,6.9,76,0.00,BKN,,0.00,WeatherDisplay:10.37,2013-07-19 15:24:00,
2013-07-19 11:29:00,88.2,79.7,29.84,SSE,156,3.3,5.8,76,0.00,BKN,,0.00,WeatherDisplay:10.37,2013-07-19 15:29:00,
2013-07-19 11:34:00,88.3,79.8,29.84,SSE,167,6.5,11.5,76,0.00,BKN,,0.00,WeatherDisplay:10.37,2013-07-19 15:34:00,
2013-07-19 11:39:00,88.4,79.9,29.84,SSW,213,4.1,8.1,76,0.00,BKN,,0.00,WeatherDisplay:10.37,2013-07-19 15:39:00,
2013-07-19 11:44:00,88.4,79.9,29.83,SSW,204,4.7,12.7,76,0.00,BKN,,0.00,WeatherDisplay:10.37,2013-07-19 15:44:00,
2013-07-19 11:49:00,88.5,80.0,29.83,WSW,252,3.0,4.6,76,0.00,BKN,,0.00,WeatherDisplay:10.37,2013-07-19 15:49:00,
2013-07-19 11:54:00,88.8,79.4,29.83,SW,234,3.7,10.0,74,0.00,BKN,,0.00,WeatherDisplay:10.37,2013-07-19 15:54:00,
2013-07-19 12:00:00,89.0,78.8,29.82,SW,227,8.4,11.5,72,0.00,BKN,,0.00,WeatherDisplay:10.37,2013-07-19 16:00:00,
2013-07-19 12:05:00,89.2,80.6,29.82,WSW,244,6.3,10.4,76,0.00,FEW,,0.00,WeatherDisplay:10.37,2013-07-19 16:05:00,
2013-07-19 12:10:00,89.3,78.7,29.82,WSW,242,7.6,10.4,71,0.00,FEW,,0.00,WeatherDisplay:10.37,2013-07-19 16:10:00,
2013-07-19 12:15:00,89.5,78.4,29.81,WSW,244,9.7,16.1,70,0.00,FEW,,0.00,WeatherDisplay:10.37,2013-07-19 16:15:00,
2013-07-19 12:20:00,89.5,78.0,29.81,WSW,253,4.6,9.2,69,0.00,FEW,,0.00,WeatherDisplay:10.37,2013-07-19 16:20:00,
2013-07-19 12:25:00,89.7,78.2,29.81,WSW,245,5.8,12.7,69,0.00,FEW,,0.00,WeatherDisplay:10.37,2013-07-19 16:25:00,
2013-07-19 12:30:00,89.7,78.2,29.81,SW,229,8.2,13.8,69,0.00,FEW,,0.00,WeatherDisplay:10.37,2013-07-19 16:30:00,
2013-07-19 12:35:00,89.8,80.0,29.81,WNW,290,2.9,10.4,73,0.00,FEW,,0.00,WeatherDisplay:10.37,2013-07-19 16:35:00,
2013-07-19 12:40:00,90.0,80.2,29.80,SW,236,4.7,9.2,73,0.00,FEW,,0.00,WeatherDisplay:10.37,2013-07-19 16:40:00,
2013-07-19 12:45:00,90.3,79.6,29.80,WSW,250,1.1,8.1,71,0.00,FEW,,0.00,WeatherDisplay:10.37,2013-07-19 16:45:00,
2013-07-19 12:50:00,90.6,81.6,29.80,SW,236,10.4,16.1,75,0.00,FEW,,0.00,WeatherDisplay:10.37,2013-07-19 16:50:00,
2013-07-19 12:55:00,90.8,78.3,29.80,West,273,12.1,19.6,67,0.00,FEW,,0.00,WeatherDisplay:10.37,2013-07-19 16:55:00,
2013-07-19 13:00:00,90.9,79.3,29.80,SW,230,4.4,12.7,69,0.00,FEW,,0.00,WeatherDisplay:10.37,2013-07-19 17:00:00,
2013-07-19 13:05:00,90.7,78.2,29.79,WSW,250,10.0,13.8,67,0.00,SCT,,0.00,WeatherDisplay:10.37,2013-07-19 17:05:00,
2013-07-19 13:10:00,90.5,79.4,29.79,SW,218,6.2,10.4,70,0.00,SCT,,0.00,WeatherDisplay:10.37,2013-07-19 17:10:00,
2013-07-19 13:15:00,90.1,78.6,29.79,SW,219,6.5,16.1,69,0.00,SCT,,0.00,WeatherDisplay:10.37,2013-07-19 17:15:00,
2013-07-19 13:20:00,90.1,79.4,29.79,SSW,206,5.7,11.5,71,0.00,SCT,,0.00,WeatherDisplay:10.37,2013-07-19 17:20:00,
2013-07-19 13:26:00,90.4,81.4,29.79,SW,236,4.3,11.5,75,0.00,SCT,,0.00,WeatherDisplay:10.37,2013-07-19 17:26:00,
2013-07-19 13:31:00,90.4,81.0,29.78,South,171,4.3,11.5,74,0.00,SCT,,0.00,WeatherDisplay:10.37,2013-07-19 17:31:00,
2013-07-19 13:36:00,90.6,79.5,29.78,SW,234,9.1,13.8,70,0.00,SCT,,0.00,WeatherDisplay:10.37,2013-07-19 17:36:00,
2013-07-19 13:41:00,90.8,80.5,29.78,WSW,240,4.2,11.5,72,0.00,SCT,,0.00,WeatherDisplay:10.37,2013-07-19 17:41:00,
2013-07-19 13:46:00,91.1,80.8,29.78,West,260,8.3,12.7,72,0.00,SCT,,0.00,WeatherDisplay:10.37,2013-07-19 17:46:00,
2013-07-19 13:51:00,91.4,80.7,29.78,West,270,5.4,12.7,71,0.00,SCT,,0.00,WeatherDisplay:10.37,2013-07-19 17:51:00,
2013-07-19 13:56:00,91.4,80.2,29.77,SSW,205,4.7,11.0,70,0.00,SCT,,0.00,WeatherDisplay:10.37,2013-07-19 17:56:00,
2013-07-19 14:01:00,91.1,79.9,29.77,SW,221,7.8,12.7,70,0.00,SCT,,0.00,WeatherDisplay:10.37,2013-07-19 18:01:00,
2013-07-19 14:06:00,91.0,80.7,29.77,West,279,3.7,10.4,72,0.00,SCT,,0.00,WeatherDisplay:10.37,2013-07-19 18:06:00,
2013-07-19 14:11:00,90.7,80.0,29.77,SW,229,4.4,9.2,71,0.00,SCT,,0.00,WeatherDisplay:10.37,2013-07-19 18:11:00,
2013-07-19 14:16:00,90.2,79.9,29.77,WSW,244,4.5,10.0,72,0.00,SCT,,0.00,WeatherDisplay:10.37,2013-07-19 18:16:00,
2013-07-19 14:22:00,90.3,80.0,29.77,SW,231,7.6,11.5,72,0.00,SCT,,0.00,WeatherDisplay:10.37,2013-07-19 18:22:00,
2013-07-19 14:27:00,90.2,80.4,29.76,SW,221,3.6,5.8,73,0.00,SCT,,0.00,WeatherDisplay:10.37,2013-07-19 18:27:00,
2013-07-19 14:32:00,90.0,80.6,29.76,West,271,8.3,15.0,74,0.00,SCT,,0.00,WeatherDisplay:10.37,2013-07-19 18:32:00,
2013-07-19 14:37:00,90.3,80.5,29.76,South,190,5.8,10.4,73,0.00,SCT,,0.00,WeatherDisplay:10.37,2013-07-19 18:37:00,
2013-07-19 14:42:00,90.4,81.0,29.76,SSW,205,2.2,4.6,74,0.00,SCT,,0.00,WeatherDisplay:10.37,2013-07-19 18:42:00,
2013-07-19 14:47:00,89.9,79.7,29.75,WSW,244,5.9,11.5,72,0.00,SCT,,0.00,WeatherDisplay:10.37,2013-07-19 18:47:00,
2013-07-19 14:52:00,89.7,80.3,29.75,WSW,238,5.7,11.5,74,0.00,SCT,,0.00,WeatherDisplay:10.37,2013-07-19 18:52:00,
2013-07-19 14:57:00,90.1,80.7,29.75,SW,221,10.2,13.8,74,0.00,SCT,,0.00,WeatherDisplay:10.37,2013-07-19 18:57:00,
2013-07-19 15:02:00,90.6,81.2,29.75,SW,229,4.5,10.0,74,0.00,SCT,,0.00,WeatherDisplay:10.37,2013-07-19 19:02:00,
2013-07-19 15:07:00,90.9,80.2,29.74,WSW,258,6.3,10.4,71,0.00,SCT,,0.00,WeatherDisplay:10.37,2013-07-19 19:07:00,
2013-07-19 15:12:00,91.1,80.8,29.74,SW,232,6.4,11.5,72,0.00,SCT,,0.00,WeatherDisplay:10.37,2013-07-19 19:12:00,
2013-07-19 15:17:00,91.1,80.4,29.74,SSW,213,6.1,11.5,71,0.00,SCT,,0.00,WeatherDisplay:10.37,2013-07-19 19:17:00,
2013-07-19 15:23:00,90.5,79.8,29.74,SSW,196,2.5,16.1,71,0.00,SCT,,0.00,WeatherDisplay:10.37,2013-07-19 19:23:00,
2013-07-19 15:28:00,90.1,80.7,29.74,WSW,248,3.6,9.2,74,0.00,SCT,,0.00,WeatherDisplay:10.37,2013-07-19 19:28:00,
2013-07-19 15:33:00,90.2,79.9,29.74,SW,235,4.2,9.2,72,0.00,SCT,,0.00,WeatherDisplay:10.37,2013-07-19 19:33:00,
2013-07-19 15:38:00,90.1,81.1,29.74,WSW,254,3.7,8.1,75,0.00,SCT,,0.00,WeatherDisplay:10.37,2013-07-19 19:38:00,
2013-07-19 15:43:00,90.6,82.0,29.73,WSW,240,4.0,6.9,76,0.00,SCT,,0.00,WeatherDisplay:10.37,2013-07-19 19:43:00,
2013-07-19 15:48:00,90.8,79.2,29.73,West,265,10.3,16.1,69,0.00,SCT,,0.00,WeatherDisplay:10.37,2013-07-19 19:48:00,
2013-07-19 15:53:00,90.9,80.6,29.73,WSW,254,10.1,14.0,72,0.00,SCT,,0.00,WeatherDisplay:10.37,2013-07-19 19:53:00,
2013-07-19 15:58:00,91.2,78.2,29.73,WSW,246,9.8,19.6,66,0.00,SCT,,0.00,WeatherDisplay:10.37,2013-07-19 19:58:00,
2013-07-19 16:03:00,91.4,78.0,29.72,West,259,6.7,10.4,65,0.00,SCT,,0.00,WeatherDisplay:10.37,2013-07-19 20:03:00,
2013-07-19 16:08:00,91.7,80.1,29.72,SW,225,5.0,5.8,69,0.00,SCT,,0.00,WeatherDisplay:10.37,2013-07-19 20:08:00,
2013-07-19 16:13:00,92.2,80.6,29.72,WSW,240,3.6,7.0,69,0.00,SCT,,0.00,WeatherDisplay:10.37,2013-07-19 20:13:00,
2013-07-19 16:19:00,92.7,79.2,29.72,WSW,243,7.7,12.7,65,0.00,SCT,,0.00,WeatherDisplay:10.37,2013-07-19 20:19:00,
2013-07-19 16:24:00,92.8,78.3,29.71,WSW,249,7.2,11.5,63,0.00,SCT,,0.00,WeatherDisplay:10.37,2013-07-19 20:24:00,
2013-07-19 16:29:00,92.7,78.3,29.71,West,272,10.0,15.0,63,0.00,SCT,,0.00,WeatherDisplay:10.37,2013-07-19 20:29:00,
2013-07-19 16:34:00,92.7,76.8,29.71,WSW,251,9.1,16.1,60,0.00,SCT,,0.00,WeatherDisplay:10.37,2013-07-19 20:34:00,
2013-07-19 16:39:00,92.6,77.7,29.71,WSW,250,8.5,12.7,62,0.00,SCT,,0.00,WeatherDisplay:10.37,2013-07-19 20:39:00,
2013-07-19 16:44:00,92.6,77.2,29.71,SW,230,11.4,13.8,61,0.00,SCT,,0.00,WeatherDisplay:10.37,2013-07-19 20:44:00,
2013-07-19 16:49:00,92.6,76.2,29.71,West,266,10.0,17.3,59,0.00,SCT,,0.00,WeatherDisplay:10.37,2013-07-19 20:49:00,
2013-07-19 16:54:00,92.5,77.1,29.70,WSW,257,3.8,6.0,61,0.00,SCT,,0.00,WeatherDisplay:10.37,2013-07-19 20:54:00,
2013-07-19 16:59:00,92.6,76.7,29.70,West,263,5.1,11.5,60,0.00,SCT,,0.00,WeatherDisplay:10.37,2013-07-19 20:59:00,
2013-07-19 17:04:00,92.6,77.7,29.70,SW,226,7.5,9.2,62,0.00,SCT,,0.00,WeatherDisplay:10.37,2013-07-19 21:04:00,
2013-07-19 17:09:00,92.7,78.3,29.70,WSW,257,5.2,10.4,63,0.00,SCT,,0.00,WeatherDisplay:10.37,2013-07-19 21:09:00,
2013-07-19 17:14:00,92.8,76.9,29.70,WSW,242,7.6,13.8,60,0.00,FEW,,0.00,WeatherDisplay:10.37,2013-07-19 21:14:00,
2013-07-19 17:20:00,92.8,75.8,29.70,WSW,249,6.3,12.7,58,0.00,FEW,,0.00,WeatherDisplay:10.37,2013-07-19 21:20:00,
2013-07-19 17:25:00,92.5,76.6,29.70,WSW,250,8.1,11.5,60,0.00,FEW,,0.00,WeatherDisplay:10.37,2013-07-19 21:25:00,
2013-07-19 17:30:00,92.3,77.4,29.70,SW,234,2.1,11.0,62,0.00,FEW,,0.00,WeatherDisplay:10.37,2013-07-19 21:30:00,
2013-07-19 17:35:00,92.0,76.6,29.70,WSW,246,9.0,12.7,61,0.00,FEW,,0.00,WeatherDisplay:10.37,2013-07-19 21:35:00,
2013-07-19 17:40:00,91.7,77.3,29.70,West,281,4.5,6.9,63,0.00,FEW,,0.00,WeatherDisplay:10.37,2013-07-19 21:40:00,
2013-07-19 17:45:00,91.6,77.7,29.70,WSW,246,4.2,6.9,64,0.00,FEW,,0.00,WeatherDisplay:10.37,2013-07-19 21:45:00,
2013-07-19 17:50:00,91.7,76.8,29.70,WSW,251,5.9,9.2,62,0.00,FEW,,0.00,WeatherDisplay:10.37,2013-07-19 21:50:00,
2013-07-19 17:55:00,91.7,76.8,29.70,SW,219,5.4,11.0,62,0.00,FEW,,0.00,WeatherDisplay:10.37,2013-07-19 21:55:00,
2013-07-19 18:00:00,91.4,76.5,29.70,SW,217,7.1,11.5,62,0.00,FEW,,0.00,WeatherDisplay:10.37,2013-07-19 22:00:00,
2013-07-19 18:05:00,91.2,75.9,29.70,WSW,245,7.0,12.7,61,0.00,FEW,,0.00,WeatherDisplay:10.37,2013-07-19 22:05:00,
2013-07-19 18:10:00,91.1,75.8,29.69,SW,227,6.7,11.5,61,0.00,FEW,,0.00,WeatherDisplay:10.37,2013-07-19 22:10:00,
2013-07-19 18:15:00,91.1,75.8,29.69,WSW,257,6.5,9.2,61,0.00,SCT,,0.00,WeatherDisplay:10.37,2013-07-19 22:15:00,
2013-07-19 18:20:00,91.0,75.7,29.70,SW,234,5.8,11.5,61,0.00,SCT,,0.00,WeatherDisplay:10.37,2013-07-19 22:20:00,
2013-07-19 18:25:00,90.8,76.9,29.70,West,259,4.9,11.0,64,0.00,SCT,,0.00,WeatherDisplay:10.37,2013-07-19 22:25:00,
2013-07-19 18:30:00,90.6,76.7,29.70,WSW,238,5.0,11.5,64,0.00,SCT,,0.00,WeatherDisplay:10.37,2013-07-19 22:30:00,
2013-07-19 18:36:00,90.7,76.8,29.70,West,281,4.9,6.9,64,0.00,SCT,,0.00,WeatherDisplay:10.37,2013-07-19 22:36:00,
2013-07-19 18:41:00,90.7,75.9,29.70,West,277,7.6,11.5,62,0.00,SCT,,0.00,WeatherDisplay:10.37,2013-07-19 22:41:00,
2013-07-19 18:46:00,90.6,75.3,29.71,West,261,9.4,12.7,61,0.00,SCT,,0.00,WeatherDisplay:10.37,2013-07-19 22:46:00,
2013-07-19 18:51:00,90.5,74.7,29.71,WSW,254,6.9,10.4,60,0.00,SCT,,0.00,WeatherDisplay:10.37,2013-07-19 22:51:00,
2013-07-19 18:56:00,90.4,75.6,29.71,SSW,207,3.8,6.9,62,0.00,SCT,,0.00,WeatherDisplay:10.37,2013-07-19 22:56:00,
2013-07-19 19:01:00,90.3,75.0,29.71,WSW,249,5.3,10.4,61,0.00,SCT,,0.00,WeatherDisplay:10.37,2013-07-19 23:01:00,
2013-07-19 19:06:00,90.1,75.3,29.71,WSW,257,3.7,5.8,62,0.00,SCT,,0.00,WeatherDisplay:10.37,2013-07-19 23:06:00,
2013-07-19 19:11:00,90.1,76.7,29.71,WSW,249,5.0,9.2,65,0.00,FEW,,0.00,WeatherDisplay:10.37,2013-07-19 23:11:00,
2013-07-19 19:16:00,89.8,74.6,29.71,West,266,3.7,5.8,61,0.00,FEW,,0.00,WeatherDisplay:10.37,2013-07-19 23:16:00,
2013-07-19 19:21:00,89.5,75.2,29.71,WSW,248,5.6,10.4,63,0.00,FEW,,0.00,WeatherDisplay:10.37,2013-07-19 23:21:00,
2013-07-19 19:26:00,89.2,74.5,29.71,WSW,239,4.2,5.8,62,0.00,FEW,,0.00,WeatherDisplay:10.37,2013-07-19 23:26:00,
2013-07-19 19:31:00,88.8,74.1,29.71,WSW,252,5.1,10.4,62,0.00,FEW,,0.00,WeatherDisplay:10.37,2013-07-19 23:31:00,
2013-07-19 19:36:00,88.4,74.2,29.70,SW,234,7.4,11.5,63,0.00,FEW,,0.00,WeatherDisplay:10.37,2013-07-19 23:36:00,
2013-07-19 19:41:00,88.0,74.3,29.71,WSW,251,5.3,10.4,64,0.00,FEW,,0.00,WeatherDisplay:10.37,2013-07-19 23:41:00,
2013-07-19 19:46:00,87.5,73.3,29.71,WSW,257,6.3,8.1,63,0.00,FEW,,0.00,WeatherDisplay:10.37,2013-07-19 23:46:00,
2013-07-19 19:52:00,87.1,73.4,29.72,WSW,248,2.8,4.6,64,0.00,FEW,,0.00,WeatherDisplay:10.37,2013-07-19 23:52:00,
2013-07-19 19:57:00,86.8,73.2,29.71,WSW,237,2.6,5.0,64,0.00,FEW,,0.00,WeatherDisplay:10.37,2013-07-19 23:57:00,
2013-07-19 20:02:00,86.4,72.8,29.71,WSW,242,3.6,5.8,64,0.00,SCT,,0.00,WeatherDisplay:10.37,2013-07-20 00:02:00,
2013-07-19 20:07:00,86.1,73.0,29.71,SW,232,6.0,9.2,65,0.00,SCT,,0.00,WeatherDisplay:10.37,2013-07-20 00:07:00,
2013-07-19 20:12:00,85.8,72.7,29.71,SW,227,3.1,5.8,65,0.00,SCT,,0.00,WeatherDisplay:10.37,2013-07-20 00:12:00,
2013-07-19 20:17:00,85.7,72.6,29.71,SW,230,3.3,4.6,65,0.00,SCT,,0.00,WeatherDisplay:10.37,2013-07-20 00:17:00,
2013-07-19 20:22:00,85.6,72.9,29.71,SW,219,4.1,5.8,66,0.00,SCT,,0.00,WeatherDisplay:10.37,2013-07-20 00:22:00,
2013-07-19 20:27:00,85.5,72.8,29.71,SW,228,4.8,5.8,66,0.00,SCT,,0.00,WeatherDisplay:10.37,2013-07-20 00:27:00,
2013-07-19 20:32:00,85.4,72.7,29.71,SW,229,3.2,4.0,66,0.00,SCT,,0.00,WeatherDisplay:10.37,2013-07-20 00:32:00,
2013-07-19 20:38:00,85.3,72.6,29.72,SSW,213,2.2,4.6,66,0.00,SCT,,0.00,WeatherDisplay:10.37,2013-07-20 00:38:00,
2013-07-19 20:43:00,85.3,72.6,29.71,SSW,205,2.7,4.6,66,0.00,SCT,,0.00,WeatherDisplay:10.37,2013-07-20 00:43:00,
2013-07-19 20:48:00,85.2,73.0,29.72,SSW,196,2.4,3.5,67,0.00,SCT,,0.00,WeatherDisplay:10.37,2013-07-20 00:48:00,
2013-07-19 20:53:00,84.9,72.7,29.72,SSW,196,1.4,3.5,67,0.00,SCT,,0.00,WeatherDisplay:10.37,2013-07-20 00:53:00,
2013-07-19 20:58:00,84.6,72.9,29.71,SW,218,2.0,3.5,68,0.00,SCT,,0.00,WeatherDisplay:10.37,2013-07-20 00:58:00,
2013-07-19 21:03:00,84.3,73.0,29.72,SW,219,1.9,4.6,69,0.00,SCT,,0.00,WeatherDisplay:10.37,2013-07-20 01:03:00,
2013-07-19 21:08:00,84.1,73.3,29.72,SSW,205,5.2,9.2,70,0.00,SCT,,0.00,WeatherDisplay:10.37,2013-07-20 01:08:00,
2013-07-19 21:13:00,84.0,73.6,29.72,SW,219,1.0,8.1,71,0.00,SCT,,0.00,WeatherDisplay:10.37,2013-07-20 01:13:00,
2013-07-19 21:18:00,83.8,73.8,29.72,SW,234,2.5,5.8,72,0.00,SCT,,0.00,WeatherDisplay:10.37,2013-07-20 01:18:00,
2013-07-19 21:24:00,83.6,74.0,29.73,SSE,159,3.0,4.6,73,0.00,SCT,,0.00,WeatherDisplay:10.37,2013-07-20 01:24:00,
2013-07-19 21:29:00,83.4,74.2,29.73,SW,220,1.1,5.0,74,0.00,SCT,,0.00,WeatherDisplay:10.37,2013-07-20 01:29:00,
2013-07-19 21:34:00,83.2,74.4,29.73,SW,228,3.7,6.9,75,0.00,SCT,,0.00,WeatherDisplay:10.37,2013-07-20 01:34:00,
2013-07-19 21:39:00,83.0,74.3,29.73,South,187,4.2,8.1,75,0.00,SCT,,0.00,WeatherDisplay:10.37,2013-07-20 01:39:00,
2013-07-19 21:44:00,82.7,74.4,29.73,SSW,207,2.7,4.6,76,0.00,SCT,,0.00,WeatherDisplay:10.37,2013-07-20 01:44:00,
2013-07-19 21:50:00,82.5,74.2,29.73,SSW,211,6.0,6.9,76,0.00,SCT,,0.00,WeatherDisplay:10.37,2013-07-20 01:50:00,
2013-07-19 21:55:00,82.4,74.1,29.74,SSW,200,5.6,11.5,76,0.00,SCT,,0.00,WeatherDisplay:10.37,2013-07-20 01:55:00,
2013-07-19 22:00:00,82.3,74.0,29.74,SW,236,3.1,6.9,76,0.00,SCT,,0.00,WeatherDisplay:10.37,2013-07-20 02:00:00,
2013-07-19 22:05:00,82.4,74.1,29.74,SSW,209,2.1,4.0,76,0.00,SCT,,0.00,WeatherDisplay:10.37,2013-07-20 02:05:00,
2013-07-19 22:10:00,82.4,74.1,29.74,SW,219,4.5,10.4,76,0.00,SCT,,0.00,WeatherDisplay:10.37,2013-07-20 02:10:00,
2013-07-19 22:15:00,82.4,74.1,29.74,SSW,198,4.6,6.9,76,0.00,SCT,,0.00,WeatherDisplay:10.37,2013-07-20 02:15:00,
2013-07-19 22:20:00,82.5,74.2,29.74,SW,218,5.8,10.4,76,0.00,SCT,,0.00,WeatherDisplay:10.37,2013-07-20 02:20:00,
2013-07-19 22:25:00,82.4,74.1,29.74,SSW,210,4.3,9.0,76,0.00,SCT,,0.00,WeatherDisplay:10.37,2013-07-20 02:25:00,
2013-07-19 22:31:00,82.3,74.0,29.74,SSW,193,3.1,6.9,76,0.00,SCT,,0.00,WeatherDisplay:10.37,2013-07-20 02:31:00,
2013-07-19 22:36:00,82.1,74.2,29.74,SSE,153,3.2,5.8,77,0.00,SCT,,0.00,WeatherDisplay:10.37,2013-07-20 02:36:00,
2013-07-19 22:41:00,82.1,74.2,29.73,South,171,3.3,9.2,77,0.00,SCT,,0.00,WeatherDisplay:10.37,2013-07-20 02:41:00,
2013-07-19 22:46:00,82.0,73.7,29.75,NNW,332,5.7,6.9,76,0.00,SCT,,0.00,WeatherDisplay:10.37,2013-07-20 02:46:00,
2013-07-19 22:51:00,81.9,73.6,29.75,NNW,342,4.1,11.5,76,0.00,BKN,,0.00,WeatherDisplay:10.37,2013-07-20 02:51:00,
2013-07-19 22:56:00,81.6,72.5,29.76,WSW,249,3.8,6.9,74,0.00,BKN,,0.00,WeatherDisplay:10.37,2013-07-20 02:56:00,
2013-07-19 23:01:00,81.3,73.0,29.76,NW,307,5.2,10.0,76,0.00,BKN,,0.00,WeatherDisplay:10.37,2013-07-20 03:01:00,
2013-07-19 23:06:00,80.8,70.1,29.77,WNW,300,9.8,19.6,70,0.00,BKN,,0.00,WeatherDisplay:10.37,2013-07-20 03:06:00,
2013-07-19 23:11:00,80.3,70.4,29.76,WNW,303,12.8,19.6,72,0.00,OVC,,0.00,WeatherDisplay:10.37,2013-07-20 03:11:00,
2013-07-19 23:17:00,79.6,69.8,29.76,NNW,345,11.8,15.0,72,0.00,OVC,,0.00,WeatherDisplay:10.37,2013-07-20 03:17:00,
2013-07-19 23:22:00,79.1,68.9,29.76,North,350,4.3,11.5,71,0.00,OVC,,0.00,WeatherDisplay:10.37,2013-07-20 03:22:00,
2013-07-19 23:27:00,78.7,68.9,29.76,West,270,3.5,6.9,72,0.00,OVC,,0.00,WeatherDisplay:10.37,2013-07-20 03:27:00,
2013-07-19 23:32:00,78.4,68.6,29.76,NNW,332,1.8,5.0,72,0.00,OVC,,0.00,WeatherDisplay:10.37,2013-07-20 03:32:00,
2013-07-19 23:37:00,78.2,68.4,29.76,NNW,336,2.2,5.8,72,0.00,OVC,,0.00,WeatherDisplay:10.37,2013-07-20 03:37:00,
2013-07-19 23:42:00,78.0,68.6,29.77,North,5,1.4,3.5,73,0.00,OVC,,0.00,WeatherDisplay:10.37,2013-07-20 03:42:00,
2013-07-19 23:47:00,77.7,68.0,29.77,NW,319,1.3,4.0,72,0.00,OVC,,0.00,WeatherDisplay:10.37,2013-07-20 03:47:00,
2013-07-19 23:52:00,77.5,68.2,29.76,NW,307,4.2,9.2,73,0.00,OVC,,0.00,WeatherDisplay:10.37,2013-07-20 03:52:00,
2013-07-19 23:57:00,77.3,68.0,29.76,NNW,344,0.0,1.2,73,0.00,OVC,,0.00,WeatherDisplay:10.37,2013-07-20 03:57:00,